chinaunix.net alexa rank chart, chinaunix.net alexa rank daily changes

chinaunix.net alexa rank chart, chinaunix.net alexa rank daily changes

chinaunix.net
Actual rank:
8 414

RANK HISTORY

Date Rank Diff
2018/02/21 8 414 +1 759
2018/02/20 6 655 -1 242
2018/02/19 7 897 +1 235
2018/02/18 6 662 -2 664
2018/02/17 9 326 +469
2018/02/16 8 857 +3 607
2018/02/15 5 250 -163
2018/02/14 5 413 -459
2018/02/13 5 872 +443
2018/02/12 5 429 +1 794
2018/02/11 3 635 -39
2018/02/10 3 674 -54
2018/02/09 3 728 -100
2018/02/08 3 828 +145
2018/02/07 3 683 -668
2018/02/06 4 351 -34
2018/02/05 4 385 -3 701
2018/02/04 8 086 +5 243
2018/02/03 2 843 -1 114
2018/02/02 3 957 +388
2018/02/01 3 569 -131
2018/01/31 3 700 -930
2018/01/30 4 630 +99
2018/01/29 4 531 +67
2018/01/28 4 464 +77
2018/01/27 4 387 +66
2018/01/26 4 321 -18
2018/01/25 4 339 +58
2018/01/24 4 281 +25
2018/01/23 4 256 +78
2018/01/22 4 178 +91
2018/01/21 4 087 +3
2018/01/20 4 084 +5
2018/01/19 4 079 +22
2018/01/18 4 057 +92
2018/01/17 3 965 +95
2018/01/16 3 870 -93
2018/01/15 3 963 +4
2018/01/14 3 959 -65
2018/01/13 4 024 -37
2018/01/12 4 061 -41
2018/01/11 4 102 -40
2018/01/10 4 142 +125
2018/01/09 4 017 +11
2018/01/08 4 006 -4
2018/01/07 4 010 -112
2018/01/06 4 122 -58
2018/01/05 4 180 +3
2018/01/04 4 177 +9
2018/01/03 4 168 -26
2018/01/02 4 194 -67
2018/01/01 4 261 +17
2017/12/31 4 244 +150
2017/12/30 4 094 -184
2017/12/29 4 278 -20
2017/12/28 4 298 -101
2017/12/27 4 399 -9
2017/12/26 4 408 -80
2017/12/25 4 488 -71
2017/12/24 4 559 -58
2017/12/23 4 617

WIDGET FOR YOUR SITE

DOMAINS WITH THE NEAREST RANK

Domain Rank
evilangel.com 8 409
chinadmd.com 8 410
meusresultados.com 8 411
qantas.com 8 412
feemoo.com 8 413
chinaunix.net 8 414
businesswire.com 8 415
morbitempus.com 8 416
lavozdegalicia.es 8 417
translationbuddy.com 8 418
skole.hr 8 419

DOMAINS WITH THE NEAREST RANK BY TLD .net

Domain Rank
pejnya.net 8 324
recode.net 8 358
speedvideo.net 8 389
videodownloaderpro.net 8 395
xemvtv.net 8 396
chinaunix.net 8 414
cpubenchmark.net 8 430
5186.net 8 448
ichacha.net 8 455
studbooks.net 8 479
kinosklad.net 8 482